Year,Month,Day,Hour,Minute,Value (Times are PST for temperature in C)
2015,08,20,00,00,15.90
2015,08,20,00,01,15.90
2015,08,20,00,02,15.80
2015,08,20,00,03,15.80
2015,08,20,00,04,15.80
2015,08,20,00,05,15.80
2015,08,20,00,06,15.80
2015,08,20,00,07,15.80
2015,08,20,00,08,15.80
2015,08,20,00,09,15.80
2015,08,20,00,10,15.80
2015,08,20,00,11,15.80
2015,08,20,00,12,15.80
2015,08,20,00,13,15.70
2015,08,20,00,14,15.70
2015,08,20,00,15,15.70
2015,08,20,00,16,15.70
2015,08,20,00,17,15.70
2015,08,20,00,18,15.70
2015,08,20,00,19,15.70
2015,08,20,00,20,15.70
2015,08,20,00,21,15.70
2015,08,20,00,22,15.60
2015,08,20,00,23,15.60
2015,08,20,00,24,15.60
2015,08,20,00,25,15.60
2015,08,20,00,26,15.60
2015,08,20,00,27,15.60
2015,08,20,00,28,15.60
2015,08,20,00,29,15.60
2015,08,20,00,30,15.60
2015,08,20,00,31,15.60
2015,08,20,00,32,15.50
2015,08,20,00,33,15.50
2015,08,20,00,34,15.40
2015,08,20,00,35,15.40
2015,08,20,00,36,15.40
2015,08,20,00,37,15.40
2015,08,20,00,38,15.30
2015,08,20,00,39,15.30
2015,08,20,00,40,15.30
2015,08,20,00,41,15.30
2015,08,20,00,42,15.20
2015,08,20,00,43,15.20
2015,08,20,00,44,15.20
2015,08,20,00,45,15.20
2015,08,20,00,46,15.10
2015,08,20,00,47,15.10
2015,08,20,00,48,15.10
2015,08,20,00,49,15.10
2015,08,20,00,50,15.10
2015,08,20,00,51,15.10
2015,08,20,00,52,15.10
2015,08,20,00,53,15.00
2015,08,20,00,54,15.00
2015,08,20,00,55,15.00
2015,08,20,00,56,15.00
2015,08,20,00,57,14.90
2015,08,20,00,58,14.90
2015,08,20,00,59,14.90
2015,08,20,01,00,14.90
2015,08,20,01,01,14.90
2015,08,20,01,02,14.90
2015,08,20,01,03,14.90
2015,08,20,01,04,14.90
2015,08,20,01,05,14.90
2015,08,20,01,06,14.90
2015,08,20,01,07,14.90
2015,08,20,01,08,14.90
2015,08,20,01,09,14.90
2015,08,20,01,10,14.90
2015,08,20,01,11,14.80
2015,08,20,01,12,14.80
2015,08,20,01,13,14.80
2015,08,20,01,14,14.80
2015,08,20,01,15,14.70
2015,08,20,01,16,14.70
2015,08,20,01,17,14.70
2015,08,20,01,18,14.60
2015,08,20,01,19,14.60
2015,08,20,01,20,14.60
2015,08,20,01,21,14.50
2015,08,20,01,22,14.50
2015,08,20,01,23,14.50
2015,08,20,01,24,14.40
2015,08,20,01,25,14.40
2015,08,20,01,26,14.40
2015,08,20,01,27,14.40
2015,08,20,01,28,14.40
2015,08,20,01,29,14.30
2015,08,20,01,30,14.30
2015,08,20,01,31,14.30
2015,08,20,01,32,14.30
2015,08,20,01,33,14.30
2015,08,20,01,34,14.30
2015,08,20,01,35,14.20
2015,08,20,01,36,14.20
2015,08,20,01,37,14.20
2015,08,20,01,38,14.20
2015,08,20,01,39,14.20
2015,08,20,01,40,14.20
2015,08,20,01,41,14.20
2015,08,20,01,42,14.20
2015,08,20,01,43,14.20
2015,08,20,01,44,14.20
2015,08,20,01,45,14.20
2015,08,20,01,46,14.20
2015,08,20,01,47,14.30
2015,08,20,01,48,14.30
2015,08,20,01,49,14.30
2015,08,20,01,50,14.30
2015,08,20,01,51,14.30
2015,08,20,01,52,14.30
2015,08,20,01,53,14.20
2015,08,20,01,54,14.20
2015,08,20,01,55,14.20
2015,08,20,01,56,14.20
2015,08,20,01,57,14.20
2015,08,20,01,58,14.20
2015,08,20,01,59,14.20
2015,08,20,02,00,14.20
2015,08,20,02,01,14.20
2015,08,20,02,02,14.20
2015,08,20,02,03,14.20
2015,08,20,02,04,14.20
2015,08,20,02,05,14.20
2015,08,20,02,06,14.10
2015,08,20,02,07,14.10
2015,08,20,02,08,14.10
2015,08,20,02,09,14.10
2015,08,20,02,10,14.10
2015,08,20,02,11,14.00
2015,08,20,02,12,14.00
2015,08,20,02,13,14.00
2015,08,20,02,14,14.00
2015,08,20,02,15,14.00
2015,08,20,02,16,13.90
2015,08,20,02,17,13.90
2015,08,20,02,18,13.90
2015,08,20,02,19,13.90
2015,08,20,02,20,13.80
2015,08,20,02,21,13.80
2015,08,20,02,22,13.80
2015,08,20,02,23,13.80
2015,08,20,02,24,13.80
2015,08,20,02,25,13.70
2015,08,20,02,26,13.70
2015,08,20,02,27,13.70
2015,08,20,02,28,13.70
2015,08,20,02,29,13.60
2015,08,20,02,30,13.60
2015,08,20,02,31,13.50
2015,08,20,02,32,13.50
2015,08,20,02,33,13.50
2015,08,20,02,34,13.40
2015,08,20,02,35,13.40
2015,08,20,02,36,13.30
2015,08,20,02,37,13.30
2015,08,20,02,38,13.30
2015,08,20,02,39,13.30
2015,08,20,02,40,13.20
2015,08,20,02,41,13.20
2015,08,20,02,42,13.20
2015,08,20,02,43,13.10
2015,08,20,02,44,13.10
2015,08,20,02,45,13.10
2015,08,20,02,46,13.00
2015,08,20,02,47,13.00
2015,08,20,02,48,13.00
2015,08,20,02,49,12.90
2015,08,20,02,50,12.90
2015,08,20,02,51,12.90
2015,08,20,02,52,12.90
2015,08,20,02,53,12.90
2015,08,20,02,54,12.90
2015,08,20,02,55,12.80
2015,08,20,02,56,12.80
2015,08,20,02,57,12.80
2015,08,20,02,58,12.80
2015,08,20,02,59,12.80
2015,08,20,03,00,12.80
2015,08,20,03,01,12.80
2015,08,20,03,02,12.80
2015,08,20,03,03,12.80
2015,08,20,03,04,12.80
2015,08,20,03,05,12.80
2015,08,20,03,06,12.80
2015,08,20,03,07,12.80
2015,08,20,03,08,12.80
2015,08,20,03,09,12.80
2015,08,20,03,10,12.80
2015,08,20,03,11,12.80
2015,08,20,03,12,12.80
2015,08,20,03,13,12.80
2015,08,20,03,14,12.80
2015,08,20,03,15,12.80
2015,08,20,03,16,12.80
2015,08,20,03,17,12.80
2015,08,20,03,18,12.80
2015,08,20,03,19,12.80
2015,08,20,03,20,12.80
2015,08,20,03,21,12.90
2015,08,20,03,22,12.90
2015,08,20,03,23,12.90
2015,08,20,03,24,12.90
2015,08,20,03,25,12.90
2015,08,20,03,26,12.90
2015,08,20,03,27,12.90
2015,08,20,03,28,12.90
2015,08,20,03,29,12.90
2015,08,20,03,30,12.90
2015,08,20,03,31,12.90
2015,08,20,03,32,12.90
2015,08,20,03,33,12.90
2015,08,20,03,34,12.90
2015,08,20,03,35,12.90
2015,08,20,03,36,12.90
2015,08,20,03,37,12.90
2015,08,20,03,38,12.80
2015,08,20,03,39,12.80
2015,08,20,03,40,12.80
2015,08,20,03,41,12.80
2015,08,20,03,42,12.80
2015,08,20,03,43,12.70
2015,08,20,03,44,12.70
2015,08,20,03,45,12.70
2015,08,20,03,46,12.70
2015,08,20,03,47,12.60
2015,08,20,03,48,12.60
2015,08,20,03,49,12.60
2015,08,20,03,50,12.50
2015,08,20,03,51,12.40
2015,08,20,03,52,12.40
2015,08,20,03,53,12.30
2015,08,20,03,54,12.30
2015,08,20,03,55,12.30
2015,08,20,03,56,12.20
2015,08,20,03,57,12.20
2015,08,20,03,58,12.10
2015,08,20,03,59,12.10
2015,08,20,04,00,12.10
2015,08,20,04,01,12.10
2015,08,20,04,02,12.00
2015,08,20,04,03,12.00
2015,08,20,04,04,11.90
2015,08,20,04,05,11.90
2015,08,20,04,06,11.90
2015,08,20,04,07,11.90
2015,08,20,04,08,11.90
2015,08,20,04,09,11.90
2015,08,20,04,10,11.80
2015,08,20,04,11,11.80
2015,08,20,04,12,11.80
2015,08,20,04,13,11.90
2015,08,20,04,14,11.90
2015,08,20,04,15,11.90
2015,08,20,04,16,11.90
2015,08,20,04,17,11.90
2015,08,20,04,18,11.90
2015,08,20,04,19,12.00
2015,08,20,04,20,12.00
2015,08,20,04,21,12.00
2015,08,20,04,22,12.00
2015,08,20,04,23,12.00
2015,08,20,04,24,11.90
2015,08,20,04,25,11.90
2015,08,20,04,26,11.90
2015,08,20,04,27,11.90
2015,08,20,04,28,11.90
2015,08,20,04,29,11.90
2015,08,20,04,30,11.90
2015,08,20,04,31,11.90
2015,08,20,04,32,11.90
2015,08,20,04,33,11.90
2015,08,20,04,34,11.90
2015,08,20,04,35,11.90
2015,08,20,04,36,11.90
2015,08,20,04,37,11.80
2015,08,20,04,38,11.80
2015,08,20,04,39,11.80
2015,08,20,04,40,11.80
2015,08,20,04,41,11.80
2015,08,20,04,42,11.80
2015,08,20,04,43,11.80
2015,08,20,04,44,11.80
2015,08,20,04,45,11.80
2015,08,20,04,46,11.80
2015,08,20,04,47,11.80
2015,08,20,04,48,11.80
2015,08,20,04,49,11.70
2015,08,20,04,50,11.70
2015,08,20,04,51,11.70
2015,08,20,04,52,11.70
2015,08,20,04,53,11.70
2015,08,20,04,54,11.70
2015,08,20,04,55,11.70
2015,08,20,04,56,11.70
2015,08,20,04,57,11.70
2015,08,20,04,58,11.70
2015,08,20,04,59,11.70
2015,08,20,05,00,11.70
2015,08,20,05,01,11.70
2015,08,20,05,02,11.60
2015,08,20,05,03,11.60
2015,08,20,05,04,11.60
2015,08,20,05,05,11.60
2015,08,20,05,06,11.60
2015,08,20,05,07,11.70
2015,08,20,05,08,11.70
2015,08,20,05,09,11.70
2015,08,20,05,10,11.60
2015,08,20,05,11,11.60
2015,08,20,05,12,11.60
2015,08,20,05,13,11.60
2015,08,20,05,14,11.60
2015,08,20,05,15,11.60
2015,08,20,05,16,11.60
2015,08,20,05,17,11.60
2015,08,20,05,18,11.60
2015,08,20,05,19,11.60
2015,08,20,05,20,11.60
2015,08,20,05,21,11.50
2015,08,20,05,22,11.50
2015,08,20,05,23,11.50
2015,08,20,05,24,11.40
2015,08,20,05,25,11.40
2015,08,20,05,26,11.40
2015,08,20,05,27,11.40
2015,08,20,05,28,11.30
2015,08,20,05,29,11.30
2015,08,20,05,30,11.30
2015,08,20,05,31,11.30
2015,08,20,05,32,11.30
2015,08,20,05,33,11.30
2015,08,20,05,34,11.30
2015,08,20,05,35,11.30
2015,08,20,05,36,11.20
2015,08,20,05,37,11.20
2015,08,20,05,38,11.20
2015,08,20,05,39,11.20
2015,08,20,05,40,11.10
2015,08,20,05,41,11.10
2015,08,20,05,42,11.00
2015,08,20,05,43,11.00
2015,08,20,05,44,10.90
2015,08,20,05,45,10.90
2015,08,20,05,46,10.90
2015,08,20,05,47,10.80
2015,08,20,05,48,10.80
2015,08,20,05,49,10.80
2015,08,20,05,50,10.80
2015,08,20,05,51,10.80
2015,08,20,05,52,10.70
2015,08,20,05,53,10.70
2015,08,20,05,54,10.70
2015,08,20,05,55,10.70
2015,08,20,05,56,10.80
2015,08,20,05,57,10.80
2015,08,20,05,58,10.90
2015,08,20,05,59,10.90
2015,08,20,06,00,11.00
2015,08,20,06,01,11.10
2015,08,20,06,02,11.00
2015,08,20,06,03,11.00
2015,08,20,06,04,11.00
2015,08,20,06,05,11.00
2015,08,20,06,06,11.00
2015,08,20,06,07,11.00
2015,08,20,06,08,11.10
2015,08,20,06,09,11.00
2015,08,20,06,10,11.00
2015,08,20,06,11,11.00
2015,08,20,06,12,11.00
2015,08,20,06,13,11.00
2015,08,20,06,14,11.00
2015,08,20,06,15,11.00
2015,08,20,06,16,11.00
2015,08,20,06,17,11.00
2015,08,20,06,18,11.00
2015,08,20,06,19,11.00
2015,08,20,06,20,11.10
2015,08,20,06,21,11.10
2015,08,20,06,22,11.10
2015,08,20,06,23,11.10
2015,08,20,06,24,11.20
2015,08,20,06,25,11.20
2015,08,20,06,26,11.20
2015,08,20,06,27,11.20
2015,08,20,06,28,11.20
2015,08,20,06,29,11.30
2015,08,20,06,30,11.30
2015,08,20,06,31,11.20
2015,08,20,06,32,11.10
2015,08,20,06,33,11.10
2015,08,20,06,34,11.00
2015,08,20,06,35,11.00
2015,08,20,06,36,11.00
2015,08,20,06,37,11.10
2015,08,20,06,38,11.10
2015,08,20,06,39,11.10
2015,08,20,06,40,11.20
2015,08,20,06,41,11.10
2015,08,20,06,42,11.10
2015,08,20,06,43,11.00
2015,08,20,06,44,11.00
2015,08,20,06,45,10.90
2015,08,20,06,46,10.90
2015,08,20,06,47,10.90
2015,08,20,06,48,10.90
2015,08,20,06,49,10.90
2015,08,20,06,50,10.90
2015,08,20,06,51,10.90
2015,08,20,06,52,10.90
2015,08,20,06,53,11.00
2015,08,20,06,54,11.00
2015,08,20,06,55,11.00
2015,08,20,06,56,11.00
2015,08,20,06,57,11.00
2015,08,20,06,58,11.00
2015,08,20,06,59,11.00
2015,08,20,07,00,11.00
2015,08,20,07,01,11.00
2015,08,20,07,02,11.00
2015,08,20,07,03,11.00
2015,08,20,07,04,11.00
2015,08,20,07,05,11.10
2015,08,20,07,06,11.10
2015,08,20,07,07,11.10
2015,08,20,07,08,11.10
2015,08,20,07,09,11.20
2015,08,20,07,10,11.20
2015,08,20,07,11,11.20
2015,08,20,07,12,11.10
2015,08,20,07,13,11.10
2015,08,20,07,14,11.10
2015,08,20,07,15,11.10
2015,08,20,07,16,11.10
2015,08,20,07,17,11.20
2015,08,20,07,18,11.20
2015,08,20,07,19,11.20
2015,08,20,07,20,11.30
2015,08,20,07,21,11.40
2015,08,20,07,22,11.50
2015,08,20,07,23,11.60
2015,08,20,07,24,11.70
2015,08,20,07,25,11.80
2015,08,20,07,26,11.90
2015,08,20,07,27,12.00
2015,08,20,07,28,12.10
2015,08,20,07,29,12.20
2015,08,20,07,30,12.30
2015,08,20,07,31,12.30
2015,08,20,07,32,12.40
2015,08,20,07,33,12.50
2015,08,20,07,34,12.50
2015,08,20,07,35,12.60
2015,08,20,07,36,12.70
2015,08,20,07,37,12.70
2015,08,20,07,38,12.80
2015,08,20,07,39,12.80
2015,08,20,07,40,12.90
2015,08,20,07,41,12.90
2015,08,20,07,42,13.00
2015,08,20,07,43,13.10
2015,08,20,07,44,13.20
2015,08,20,07,45,13.30
2015,08,20,07,46,13.40
2015,08,20,07,47,13.40
2015,08,20,07,48,13.50
2015,08,20,07,49,13.50
2015,08,20,07,50,13.50
2015,08,20,07,51,13.60
2015,08,20,07,52,13.60
2015,08,20,07,53,13.70
2015,08,20,07,54,13.70
2015,08,20,07,55,13.80
2015,08,20,07,56,13.90
2015,08,20,07,57,13.90
2015,08,20,07,58,14.00
2015,08,20,07,59,14.00
2015,08,20,08,00,14.00
2015,08,20,08,01,14.00
2015,08,20,08,02,14.10
2015,08,20,08,03,14.10
2015,08,20,08,04,14.10
2015,08,20,08,05,14.10
2015,08,20,08,06,14.20
2015,08,20,08,07,14.20
2015,08,20,08,08,14.30
2015,08,20,08,09,14.40
2015,08,20,08,10,14.40
2015,08,20,08,11,14.50
2015,08,20,08,12,14.50
2015,08,20,08,13,14.60
2015,08,20,08,14,14.60
2015,08,20,08,15,14.70
2015,08,20,08,16,14.70
2015,08,20,08,17,14.70
2015,08,20,08,18,14.70
2015,08,20,08,19,14.80
2015,08,20,08,20,14.80
2015,08,20,08,21,14.80
2015,08,20,08,22,14.90
2015,08,20,08,23,14.90
2015,08,20,08,24,15.00
2015,08,20,08,25,15.00
2015,08,20,08,26,15.10
2015,08,20,08,27,15.10
2015,08,20,08,28,15.20
2015,08,20,08,29,15.20
2015,08,20,08,30,15.20
2015,08,20,08,31,15.30
2015,08,20,08,32,15.30
2015,08,20,08,33,15.30
2015,08,20,08,34,15.40
2015,08,20,08,35,15.40
2015,08,20,08,36,15.50
2015,08,20,08,37,15.50
2015,08,20,08,38,15.50
2015,08,20,08,39,15.40
2015,08,20,08,40,15.40
2015,08,20,08,41,15.40
2015,08,20,08,42,15.40
2015,08,20,08,43,15.50
2015,08,20,08,44,15.50
2015,08,20,08,45,15.50
2015,08,20,08,46,15.50
2015,08,20,08,47,15.60
2015,08,20,08,48,15.60
2015,08,20,08,49,15.60
2015,08,20,08,50,15.60
2015,08,20,08,51,15.60
2015,08,20,08,52,15.70
2015,08,20,08,53,15.70
2015,08,20,08,54,15.80
2015,08,20,08,55,15.80
2015,08,20,08,56,15.90
2015,08,20,08,57,15.90
2015,08,20,08,58,15.90
2015,08,20,08,59,15.90
2015,08,20,09,00,15.90
2015,08,20,09,01,15.90
2015,08,20,09,02,16.00
2015,08,20,09,03,16.00
2015,08,20,09,04,16.10
2015,08,20,09,05,16.10
2015,08,20,09,06,16.10
2015,08,20,09,07,16.20
2015,08,20,09,08,16.20
2015,08,20,09,09,16.30
2015,08,20,09,10,16.30
2015,08,20,09,11,16.30
2015,08,20,09,12,16.40
2015,08,20,09,13,16.40
2015,08,20,09,14,16.50
2015,08,20,09,15,16.50
2015,08,20,09,16,16.50
2015,08,20,09,17,16.50
2015,08,20,09,18,16.50
2015,08,20,09,19,16.60
2015,08,20,09,20,16.60
2015,08,20,09,21,16.70
2015,08,20,09,22,16.70
2015,08,20,09,23,16.80
2015,08,20,09,24,16.80
2015,08,20,09,25,16.90
2015,08,20,09,26,16.90
2015,08,20,09,27,17.00
2015,08,20,09,28,17.10
2015,08,20,09,29,17.20
2015,08,20,09,30,17.30
2015,08,20,09,31,17.40
2015,08,20,09,32,17.40
2015,08,20,09,33,17.50
2015,08,20,09,34,17.50
2015,08,20,09,35,17.50
2015,08,20,09,36,17.40
2015,08,20,09,37,17.40
2015,08,20,09,38,17.30
2015,08,20,09,39,17.30
2015,08,20,09,40,17.30
2015,08,20,09,41,17.20
2015,08,20,09,42,17.20
2015,08,20,09,43,17.20
2015,08,20,09,44,17.20
2015,08,20,09,45,17.30
2015,08,20,09,46,17.30
2015,08,20,09,47,17.30
2015,08,20,09,48,17.30
2015,08,20,09,49,17.40
2015,08,20,09,50,17.50
2015,08,20,09,51,17.50
2015,08,20,09,52,17.50
2015,08,20,09,53,17.50
2015,08,20,09,54,17.40
2015,08,20,09,55,17.40
2015,08,20,09,56,17.50
2015,08,20,09,57,17.50
2015,08,20,09,58,17.60
2015,08,20,09,59,17.70
2015,08,20,10,00,17.70
2015,08,20,10,01,17.80
2015,08,20,10,02,17.90
2015,08,20,10,03,17.90
2015,08,20,10,04,17.90
2015,08,20,10,05,17.90
2015,08,20,10,06,18.00
2015,08,20,10,07,18.00
2015,08,20,10,08,18.10
2015,08,20,10,09,18.20
2015,08,20,10,10,18.20
2015,08,20,10,11,18.20
2015,08,20,10,12,18.30
2015,08,20,10,13,18.30
2015,08,20,10,14,18.30
2015,08,20,10,15,18.30
2015,08,20,10,16,18.30
2015,08,20,10,17,18.30
2015,08,20,10,18,18.30
2015,08,20,10,19,18.30
2015,08,20,10,20,18.40
2015,08,20,10,21,18.40
2015,08,20,10,22,18.40
2015,08,20,10,23,18.40
2015,08,20,10,24,18.40
2015,08,20,10,25,18.50
2015,08,20,10,26,18.60
2015,08,20,10,27,18.70
2015,08,20,10,28,18.70
2015,08,20,10,29,18.70
2015,08,20,10,30,18.70
2015,08,20,10,31,18.70
2015,08,20,10,32,18.80
2015,08,20,10,33,18.80
2015,08,20,10,34,18.80
2015,08,20,10,35,18.80
2015,08,20,10,36,18.80
2015,08,20,10,37,18.90
2015,08,20,10,38,19.00
2015,08,20,10,39,19.10
2015,08,20,10,40,19.20
2015,08,20,10,41,19.20
2015,08,20,10,42,19.20
2015,08,20,10,43,19.30
2015,08,20,10,44,19.30
2015,08,20,10,45,19.40
2015,08,20,10,46,19.50
2015,08,20,10,47,19.60
2015,08,20,10,48,19.60
2015,08,20,10,49,19.70
2015,08,20,10,50,19.70
2015,08,20,10,51,19.70
2015,08,20,10,52,19.60
2015,08,20,10,53,19.70
2015,08,20,10,54,19.60
2015,08,20,10,55,19.60
2015,08,20,10,56,19.60
2015,08,20,10,57,19.60
2015,08,20,10,58,19.60
2015,08,20,10,59,19.60
2015,08,20,11,00,19.60
2015,08,20,11,01,19.60
2015,08,20,11,02,19.70
2015,08,20,11,03,19.70
2015,08,20,11,04,19.80
2015,08,20,11,05,19.80
2015,08,20,11,06,19.90
2015,08,20,11,07,19.90
2015,08,20,11,08,19.90
2015,08,20,11,09,19.90
2015,08,20,11,10,19.90
2015,08,20,11,11,19.90
2015,08,20,11,12,19.90
2015,08,20,11,13,19.90
2015,08,20,11,14,19.90
2015,08,20,11,15,19.90
2015,08,20,11,16,19.90
2015,08,20,11,17,19.90
2015,08,20,11,18,19.90
2015,08,20,11,19,19.90
2015,08,20,11,20,20.00
2015,08,20,11,21,20.10
2015,08,20,11,22,20.20
2015,08,20,11,23,20.10
2015,08,20,11,24,20.00
2015,08,20,11,25,19.90
2015,08,20,11,26,19.80
2015,08,20,11,27,19.80
2015,08,20,11,28,19.70
2015,08,20,11,29,19.60
2015,08,20,11,30,19.60
2015,08,20,11,31,19.60
2015,08,20,11,32,19.60
2015,08,20,11,33,19.70
2015,08,20,11,34,19.80
2015,08,20,11,35,19.90
2015,08,20,11,36,19.90
2015,08,20,11,37,19.90
2015,08,20,11,38,19.80
2015,08,20,11,39,19.80
2015,08,20,11,40,19.80
2015,08,20,11,41,19.80
2015,08,20,11,42,19.90
2015,08,20,11,43,19.90
2015,08,20,11,44,19.90
2015,08,20,11,45,19.90
2015,08,20,11,46,19.90
2015,08,20,11,47,19.90
2015,08,20,11,48,19.90
2015,08,20,11,49,19.90
2015,08,20,11,50,19.90
2015,08,20,11,51,20.00
2015,08,20,11,52,20.00
2015,08,20,11,53,19.90
2015,08,20,11,54,19.90
2015,08,20,11,55,19.90
2015,08,20,11,56,19.90
2015,08,20,11,57,20.00
2015,08,20,11,58,20.10
2015,08,20,11,59,20.10
2015,08,20,12,00,20.10
2015,08,20,12,01,20.10
2015,08,20,12,02,20.00
2015,08,20,12,03,20.00
2015,08,20,12,04,20.00
2015,08,20,12,05,19.90
2015,08,20,12,06,20.00
2015,08,20,12,07,20.10
2015,08,20,12,08,20.10
2015,08,20,12,09,20.10
2015,08,20,12,10,20.10
2015,08,20,12,11,20.10
2015,08,20,12,12,20.10
2015,08,20,12,13,20.10
2015,08,20,12,14,20.20
2015,08,20,12,15,20.40
2015,08,20,12,16,20.60
2015,08,20,12,17,20.70
2015,08,20,12,18,20.80
2015,08,20,12,19,20.90
2015,08,20,12,20,20.90
2015,08,20,12,21,20.80
2015,08,20,12,22,20.80
2015,08,20,12,23,20.80
2015,08,20,12,24,20.80
2015,08,20,12,25,20.80
2015,08,20,12,26,20.80
2015,08,20,12,27,20.70
2015,08,20,12,28,20.70
2015,08,20,12,29,20.70
2015,08,20,12,30,20.70
2015,08,20,12,31,20.80
2015,08,20,12,32,20.80
2015,08,20,12,33,20.80
2015,08,20,12,34,20.80
2015,08,20,12,35,20.70
2015,08,20,12,36,20.70
2015,08,20,12,37,20.60
2015,08,20,12,38,20.50
2015,08,20,12,39,20.50
2015,08,20,12,40,20.50
2015,08,20,12,41,20.50
2015,08,20,12,42,20.40
2015,08,20,12,43,20.30
2015,08,20,12,44,20.30
2015,08,20,12,45,20.40
2015,08,20,12,46,20.40
2015,08,20,12,47,20.40
2015,08,20,12,48,20.40
2015,08,20,12,49,20.30
2015,08,20,12,50,20.30
2015,08,20,12,51,20.40
2015,08,20,12,52,20.40
2015,08,20,12,53,20.30
2015,08,20,12,54,20.30
2015,08,20,12,55,20.20
2015,08,20,12,56,20.20
2015,08,20,12,57,20.10
2015,08,20,12,58,20.00
2015,08,20,12,59,19.90
2015,08,20,13,00,19.90
2015,08,20,13,01,20.00
2015,08,20,13,02,20.10
2015,08,20,13,03,20.10
2015,08,20,13,04,20.20
2015,08,20,13,05,20.20
2015,08,20,13,06,20.30
2015,08,20,13,07,20.30
2015,08,20,13,08,20.40
2015,08,20,13,09,20.50
2015,08,20,13,10,20.60
2015,08,20,13,11,20.70
2015,08,20,13,12,20.80
2015,08,20,13,13,20.80
2015,08,20,13,14,20.80
2015,08,20,13,15,20.80
2015,08,20,13,16,20.80
2015,08,20,13,17,20.80
2015,08,20,13,18,20.80
2015,08,20,13,19,20.90
2015,08,20,13,20,20.90
2015,08,20,13,21,20.90
2015,08,20,13,22,20.90
2015,08,20,13,23,20.90
2015,08,20,13,24,20.90
2015,08,20,13,25,20.90
2015,08,20,13,26,20.90
2015,08,20,13,27,20.90
2015,08,20,13,28,20.90
2015,08,20,13,29,20.80
2015,08,20,13,30,20.80
2015,08,20,13,31,20.80
2015,08,20,13,32,20.80
2015,08,20,13,33,20.90
2015,08,20,13,34,20.90
2015,08,20,13,35,20.90
2015,08,20,13,36,21.00
2015,08,20,13,37,21.10
2015,08,20,13,38,21.20
2015,08,20,13,39,21.20
2015,08,20,13,40,21.20
2015,08,20,13,41,21.20
2015,08,20,13,42,21.20
2015,08,20,13,43,21.10
2015,08,20,13,44,21.10
2015,08,20,13,45,21.10
2015,08,20,13,46,21.00
2015,08,20,13,47,21.00
2015,08,20,13,48,20.90
2015,08,20,13,49,20.90
2015,08,20,13,50,20.80
2015,08,20,13,51,20.80
2015,08,20,13,52,20.70
2015,08,20,13,53,20.70
2015,08,20,13,54,20.70
2015,08,20,13,55,20.80
2015,08,20,13,56,20.80
2015,08,20,13,57,20.80
2015,08,20,13,58,20.80
2015,08,20,13,59,20.80
2015,08,20,14,00,20.80
2015,08,20,14,01,20.90
2015,08,20,14,02,20.90
2015,08,20,14,03,20.90
2015,08,20,14,04,21.00
2015,08,20,14,05,21.00
2015,08,20,14,06,21.10
2015,08,20,14,07,21.10
2015,08,20,14,08,21.10
2015,08,20,14,09,21.00
2015,08,20,14,10,21.00
2015,08,20,14,11,20.90
2015,08,20,14,12,20.80
2015,08,20,14,13,20.70
2015,08,20,14,14,20.60
2015,08,20,14,15,20.60
2015,08,20,14,16,20.60
2015,08,20,14,17,20.60
2015,08,20,14,18,20.60
2015,08,20,14,19,20.60
2015,08,20,14,20,20.60
2015,08,20,14,21,20.60
2015,08,20,14,22,20.60
2015,08,20,14,23,20.60
2015,08,20,14,24,20.60
2015,08,20,14,25,20.60
2015,08,20,14,26,20.60
2015,08,20,14,27,20.60
2015,08,20,14,28,20.70
2015,08,20,14,29,20.80
2015,08,20,14,30,20.90
2015,08,20,14,31,20.90
2015,08,20,14,32,21.00
2015,08,20,14,33,21.00
2015,08,20,14,34,21.10
2015,08,20,14,35,21.20
2015,08,20,14,36,21.30
2015,08,20,14,37,21.30
2015,08,20,14,38,21.40
2015,08,20,14,39,21.40
2015,08,20,14,40,21.40
2015,08,20,14,41,21.40
2015,08,20,14,42,21.40
2015,08,20,14,43,21.40
2015,08,20,14,44,21.40
2015,08,20,14,45,21.40
2015,08,20,14,46,21.50
2015,08,20,14,47,21.40
2015,08,20,14,48,21.30
2015,08,20,14,49,21.20
2015,08,20,14,50,21.00
2015,08,20,14,51,21.00
2015,08,20,14,52,20.90
2015,08,20,14,53,20.80
2015,08,20,14,54,20.70
2015,08,20,14,55,20.70
2015,08,20,14,56,20.70
2015,08,20,14,57,20.70
2015,08,20,14,58,20.60
2015,08,20,14,59,20.60
2015,08,20,15,00,20.60
2015,08,20,15,01,20.60
2015,08,20,15,02,20.50
2015,08,20,15,03,20.50
2015,08,20,15,04,20.40
2015,08,20,15,05,20.30
2015,08,20,15,06,20.30
2015,08,20,15,07,20.30
2015,08,20,15,08,20.30
2015,08,20,15,09,20.30
2015,08,20,15,10,20.30
2015,08,20,15,11,20.20
2015,08,20,15,12,20.10
2015,08,20,15,13,20.10
2015,08,20,15,14,20.00
2015,08,20,15,15,20.00
2015,08,20,15,16,19.90
2015,08,20,15,17,19.90
2015,08,20,15,18,19.90
2015,08,20,15,19,19.90
2015,08,20,15,20,19.90
2015,08,20,15,21,19.90
2015,08,20,15,22,19.90
2015,08,20,15,23,20.00
2015,08,20,15,24,20.00
2015,08,20,15,25,20.10
2015,08,20,15,26,20.10
2015,08,20,15,27,20.10
2015,08,20,15,28,20.10
2015,08,20,15,29,20.20
2015,08,20,15,30,20.20
2015,08,20,15,31,20.10
2015,08,20,15,32,20.10
2015,08,20,15,33,20.00
2015,08,20,15,34,20.00
2015,08,20,15,35,20.00
2015,08,20,15,36,20.10
2015,08,20,15,37,20.10
2015,08,20,15,38,20.10
2015,08,20,15,39,20.10
2015,08,20,15,40,20.10
2015,08,20,15,41,20.00
2015,08,20,15,42,20.00
2015,08,20,15,43,20.00
2015,08,20,15,44,20.10
2015,08,20,15,45,20.10
2015,08,20,15,46,20.10
2015,08,20,15,47,20.00
2015,08,20,15,48,20.10
2015,08,20,15,49,20.10
2015,08,20,15,50,20.10
2015,08,20,15,51,20.10
2015,08,20,15,52,20.10
2015,08,20,15,53,20.10
2015,08,20,15,54,20.10
2015,08,20,15,55,20.10
2015,08,20,15,56,20.10
2015,08,20,15,57,20.10
2015,08,20,15,58,20.10
2015,08,20,15,59,20.10
2015,08,20,16,00,20.10
2015,08,20,16,01,20.10
2015,08,20,16,02,20.10
2015,08,20,16,03,20.10
2015,08,20,16,04,20.10
2015,08,20,16,05,20.10
2015,08,20,16,06,20.10
2015,08,20,16,07,20.10
2015,08,20,16,08,20.20
2015,08,20,16,09,20.20
2015,08,20,16,10,20.20
2015,08,20,16,11,20.20
2015,08,20,16,12,20.20
2015,08,20,16,13,20.20
2015,08,20,16,14,20.20
2015,08,20,16,15,20.20
2015,08,20,16,16,20.20
2015,08,20,16,17,20.30
2015,08,20,16,18,20.30
2015,08,20,16,19,20.30
2015,08,20,16,20,20.30
2015,08,20,16,21,20.30
2015,08,20,16,22,20.40
2015,08,20,16,23,20.40
2015,08,20,16,24,20.40
2015,08,20,16,25,20.30
2015,08,20,16,26,20.20
2015,08,20,16,27,20.10
2015,08,20,16,28,20.10
2015,08,20,16,29,20.10
2015,08,20,16,30,20.00
2015,08,20,16,31,20.00
2015,08,20,16,32,20.00
2015,08,20,16,33,19.90
2015,08,20,16,34,19.90
2015,08,20,16,35,19.90
2015,08,20,16,36,20.00
2015,08,20,16,37,20.10
2015,08,20,16,38,20.20
2015,08,20,16,39,20.20
2015,08,20,16,40,20.30
2015,08,20,16,41,20.30
2015,08,20,16,42,20.30
2015,08,20,16,43,20.30
2015,08,20,16,44,20.30
2015,08,20,16,45,20.30
2015,08,20,16,46,20.30
2015,08,20,16,47,20.30
2015,08,20,16,48,20.30
2015,08,20,16,49,20.30
2015,08,20,16,50,20.30
2015,08,20,16,51,20.20
2015,08,20,16,52,20.20
2015,08,20,16,53,20.20
2015,08,20,16,54,20.30
2015,08,20,16,55,20.30
2015,08,20,16,56,20.30
2015,08,20,16,57,20.30
2015,08,20,16,58,20.30
2015,08,20,16,59,20.30
2015,08,20,17,00,20.30
2015,08,20,17,01,20.30
2015,08,20,17,02,20.30
2015,08,20,17,03,20.30
2015,08,20,17,04,20.30
2015,08,20,17,05,20.30
2015,08,20,17,06,20.30
2015,08,20,17,07,20.40
2015,08,20,17,08,20.40
2015,08,20,17,09,20.40
2015,08,20,17,10,20.30
2015,08,20,17,11,20.30
2015,08,20,17,12,20.40
2015,08,20,17,13,20.40
2015,08,20,17,14,20.50
2015,08,20,17,15,20.60
2015,08,20,17,16,20.60
2015,08,20,17,17,20.70
2015,08,20,17,18,20.70
2015,08,20,17,19,20.70